Location: Prairie Dale
(45.6972°N, 104.5033°W)
Time: 21:51:54
(UTC+00:00)

STARS - Pass Details

Date: 02 July 2022
Orbit: 620 x 637 km, 98.2° (Epoch: 07 August)

Event Time Altitude Azimuth Distance (km) Brightness Sun altitude
Rises 05:06:10 0° 21° (NNE) 2,931 ? -16.4°
Reaches altitude 10° 05:08:33 10° 31° (NNE) 2,015 ? -16.6°
Maximum altitude 05:12:34 34° 97° (E) 1,028 ? -16.9°
Enters shadow 05:13:40 30° 128° (SE) 1,130 ? -17.0°
